Flag for U.S.A. Weather past 2 weeks in McAllen, Texas, U.S.A.

Now
78 °F

Clear.


Feels Like: 80 °F
Forecast: 78 / 98 °F
Wind: No wind

Location: Miller International Airport

Current Time: Aug 2, 2015 at 2:12:24 AM

Latest Report: Aug 2, 2015 at 1:53 AM


Visibility: 8 mi

Pressure: 29.90 "Hg

Humidity: 76%

Dew point: 70 °F

Location of McAllenLocation

Historic Weather in McAllen — Graph

°F

McAllen temperature yesterday

Maximum temperature yesterday: 99 °F (at 2:53 PM)
Minimum temperature yesterday: 79 °F (at 6:53 AM)
Average temperature yesterday: 89 °F

Past Weeks' High & Low Weather Summary

 TemperatureHumidityPressure
High105 °F (Jul 26, 2:53 PM)88% (Jul 20, 5:53 AM)30.05 "Hg (Jul 20, 5:53 AM)
Low77 °F (Jul 31, 6:53 AM)27% (Jul 30, 3:53 PM)29.79 "Hg (Jul 21, 6:53 PM)
Average90 °F62%29.92 "Hg
* Reported Jul 18 12:53 AM — Aug 2 12:53 AM, McAllen, Weather by CustomWeather, © 2015

Note: Actual official high and low records may vary slightly from our data, if they occured in-between our weather recording intervals... More about our weather records

Advertising

McAllen weather history for previous 24 hours

 ConditionsComfort  
Time TempWeatherWind HumidityBarometerVisibility
12:53 AM
Sun, Aug 2
80 °FClear.3 mph74%29.92 "Hg9 mi
11:53 PM
Sat, Aug 1
80 °FClear.6 mph74%29.92 "Hg9 mi
10:53 PM83 °FClear.8 mph70%29.92 "Hg10 mi
9:53 PM85 °FClear.9 mph65%29.91 "Hg10 mi
8:53 PM88 °FSunny.9 mph59%29.90 "Hg10 mi
7:53 PM90 °FSunny.13 mph56%29.88 "Hg9 mi
6:53 PM95 °FPassing clouds.16 mph43%29.86 "Hg10 mi
5:53 PM99 °FPassing clouds.9 mph35%29.85 "Hg9 mi
4:53 PM99 °FPassing clouds.8 mph34%29.86 "Hg10 mi
3:53 PM99 °FPassing clouds.5 mph37%29.88 "Hg10 mi
2:53 PM99 °FPassing clouds.No wind37%29.90 "Hg10 mi
1:53 PM98 °FScattered clouds.7 mph39%29.92 "Hg10 mi
12:53 PM97 °FPassing clouds.9 mph43%29.94 "Hg10 mi
11:53 AM94 °FSunny.7 mph48%29.96 "Hg9 mi
10:53 AM92 °FSunny.7 mph54%29.97 "Hg9 mi
9:53 AM89 °FSunny.5 mph63%29.98 "Hg7 mi
8:53 AM87 °FSunny.3 mph67%29.95 "Hg7 mi
7:53 AM83 °FClear.3 mph74%29.93 "Hg7 mi
6:53 AM79 °FPassing clouds.No wind82%29.93 "Hg7 mi
5:53 AM80 °FClear.3 mph79%29.92 "Hg7 mi
4:53 AM80 °FClear.No wind76%29.92 "Hg8 mi
3:53 AM81 °FClear.3 mph77%29.93 "Hg9 mi
2:53 AM81 °FClear.5 mph74%29.95 "Hg9 mi
Weather by CustomWeather, © 2015

See weather overviewHow to use our weather pages